OE3MHU-12 Weather Reports


time (UTC)temp
F
wind
direction
speed
knots
gust
knots
rain 1hr
in
rain 24hr
in
rain mn
in
humidity
%
barometer
mb
20260905224244 59 275 0.9 2.6 0.00 0.06 0.00 71 1022.5
20260905221244 60 262 0.9 2.6 0.00 0.06 0.00 69 1022.3
20260905214244 61 299 1.7 4.3 0.00 0.06 0.06 67 1021.9
20260905211244 62 285 1.7 4.3 0.00 0.06 0.06 69 1021.7
20260905201245 64 294 1.7 4.3 0.00 0.06 0.06 67 1020.9
20260905191245 66 308 1.7 5.2 0.00 0.06 0.06 63 1020.2
20260905181245 68 310 4.3 7.8 0.00 0.06 0.06 59 1019.4
20260905174245 69 260 6.1 12.2 0.00 0.06 0.06 56 1019.0
20260905171245 70 306 7.0 13.9 0.00 0.06 0.06 53 1018.6
20260905164245 72 317 7.0 12.2 0.00 0.06 0.06 52 1018.5
20260905161245 72 285 6.1 12.2 0.00 0.06 0.06 51 1018.2
20260905151246 73 262 7.8 20.0 0.00 0.06 0.06 50 1018.0
20260905144246 73 302 7.0 11.3 0.00 0.06 0.06 51 1018.0
20260905141246 73 266 7.8 13.0 0.00 0.06 0.06 51 1018.0
20260905134246 74 260 7.8 15.6 0.00 0.06 0.06 51 1018.2
20260905131246 75 306 7.8 13.0 0.00 0.06 0.06 51 1018.2
20260905124246 75 304 8.7 18.2 0.00 0.06 0.06 52 1018.2
20260905121246 76 276 8.7 13.9 0.00 0.06 0.06 51 1018.3
20260905114246 73 289 7.0 13.9 0.00 0.06 0.06 58 1018.4
20260905111246 73 318 7.0 12.2 0.00 0.06 0.06 57 1018.3
20260905104246 72 257 6.1 12.2 0.00 0.06 0.06 59 1018.4
20260905101246 73 314 6.1 14.8 0.00 0.06 0.06 57 1018.2
20260905094247 72 281 6.1 13.0 0.00 0.06 0.06 62 1018.3
20260905091247 70 335 6.1 9.6 0.00 0.06 0.06 70 1018.4
20260905071247 59 252 2.6 6.1 0.02 0.04 0.04 85 1017.1
20260905064247 59 250 1.7 4.3 0.02 0.02 0.02 83 1017.7
20260905061247 60 335 1.7 7.0 0.02 0.02 0.02 82 1017.0
20260905054247 61 302 2.6 6.1 0.00 0.00 0.00 80 1018.2
20260905051744 61 281 0.9 2.6 0.00 0.00 0.00 77 1017.1
20260905051247 61 281 0.9 2.6 0.00 0.00 0.00 77 1017.1
20260905044247 63 305 0.9 2.6 0.00 0.00 0.00 75 1016.5
20260905041247 64 270 1.7 4.3 0.00 0.00 0.00 68 1015.8
20260905034248 65 343 1.7 3.5 0.00 0.00 0.00 66 1015.5
20260905031248 66 341 2.6 7.0 0.00 0.00 0.00 64 1014.4
20260905024248 66 341 2.6 4.3 0.00 0.00 0.00 67 1014.4
20260905014248 73 342 0.9 5.2 0.00 0.00 0.00 62 1012.5
20260905011248 73 308 0.9 2.6 0.00 0.00 0.00 60 1011.9
20260905004254 74 299 1.7 5.2 0.00 0.00 0.00 59 1011.7
20260905004249 74 299 1.7 5.2 0.00 0.00 0.00 59 1011.7
20260905001248 73 262 2.6 6.1 0.00 0.00 0.00 59 1011.5
20260904234248 70 253 0.9 4.3 0.00 0.00 0.00 64 1011.4
20260904231248 68 287 0.9 2.6 0.00 0.00 0.00 67 1011.4